Location: Bailey Volunteer Fire Department
(33.4359°N, 96.1680°W)
Time: 17:07:51
(UTC+00:00)

Cosmos 1825 Rocket - Visible Passes

Search period start: 14 March 2026 00:00
Search period end: 24 March 2026 00:00
Orbit: 598 x 622 km, 82.5° (Epoch: 14 March)

Date Brightness Start Highest point End Pass type
(mag) Time Alt. Az. Time Alt. Az. Time Alt. Az.
14 Mar 6.4 02:05:15 10° WSW 02:08:24 19° WNW 02:11:36 10° NNW visible
15 Mar 7.2 02:22:11 10° W 02:23:06 11° WNW 02:24:02 10° WNW visible
16 Mar 3.7 00:55:12 10° S 00:59:35 84° W 01:04:01 10° N visible
16 Mar 6.8 11:08:21 10° NE 11:11:02 16° ENE 11:13:42 10° ESE visible
17 Mar 4.9 01:09:53 10° SSW 01:14:05 44° W 01:18:19 10° N visible
17 Mar 5.8 11:21:54 10° NNE 11:25:40 28° ENE 11:29:25 10° SE visible
18 Mar 6.2 01:25:04 10° SW 01:28:40 24° WNW 01:32:17 10° NNW visible
18 Mar 4.5 11:35:58 10° N 11:40:14 52° E 11:44:27 10° SSE visible
19 Mar 7.0 01:41:04 10° WSW 01:43:19 14° WNW 01:45:34 10° NW visible
19 Mar 3.5 11:50:20 10° N 11:54:42 81° W 11:59:01 10° S visible
20 Mar 6.9 10:29:26 10° NE 10:31:15 12° ENE 10:33:04 10° E visible
21 Mar 6.1 10:42:30 10° NNE 10:45:55 22° ENE 10:49:17 10° SE visible
22 Mar 4.9 10:56:24 10° N 11:00:30 40° E 11:04:33 10° SSE visible
23 Mar 6.8 01:00:35 10° WSW 01:03:32 17° WNW 01:06:30 10° NNW visible
23 Mar 3.6 11:10:39 10° N 11:15:00 78° E 11:19:18 10° S visible
